Wind_Speed
12 13 13 13 14 14 14 14 13 13 13 15 16 16 16 15 16 17 17 18 18 17 15 15 15 15 14 12 12 10 10 9 8 6 5 5 5 5 4 4 4 3 4
13 13 13 14 15 15 15 16 15 13 13 14 16 17 18 17 17 16 17 18 18 18 16 15 15 15 15 14 12 12 11 10 9 8 7 6 6 5 5 5 5 5 4
14 14 14 15 15 15 16 16 15 13 13 14 16 17 18 19 18 18 18 18 20 20 18 17 16 16 16 15 14 14 13 12 11 10 8 7 7 7 7 6 6 6 6
15 15 15 15 15 15 16 16 16 14 14 14 15 16 17 18 18 18 19 19 20 20 20 19 18 17 17 16 16 15 15 13 12 11 10 9 9 8 8 8 8 8 7
15 15 15 15 15 15 16 16 16 15 14 14 15 15 16 18 18 18 18 19 19 20 20 20 19 18 17 17 17 16 16 15 14 13 12 12 11 10 10 10 10 10 9
15 14 15 15 14 15 15 15 14 14 14 14 14 14 15 18 19 18 17 18 19 19 19 19 19 19 18 18 18 18 17 17 16 16 15 14 13 13 12 12 12 12 11
14 14 13 14 14 15 14 14 12 11 12 12 12 13 15 16 17 17 18 18 19 19 19 19 19 20 20 19 19 19 19 18 18 17 17 16 16 15 14 14 14 14 14
14 13 13 13 13 13 12 11 10 10 10 11 11 11 13 14 16 17 18 18 19 19 20 20 20 20 21 20 20 20 20 20 19 19 19 18 18 17 17 17 16 16 16
13 12 12 12 12 11 9 9 8 8 9 9 9 10 11 12 14 16 19 19 19 20 20 20 20 21 21 22 21 21 21 21 21 21 20 20 20 20 20 19 19 18 18
11 11 11 11 10 9 8 7 7 8 8 8 9 10 11 12 13 14 16 18 19 20 20 20 20 21 21 22 22 21 22 22 21 22 22 22 22 21 21 21 21 22 22
11 10 10 9 8 8 8 8 8 8 8 8 9 10 11 12 13 14 14 16 18 18 19 19 21 21 22 23 22 22 22 23 23 23 23 23 24 23 23 23 24 24 24
11 10 9 9 8 7 7 7 8 8 8 9 9 10 10 11 11 12 13 15 17 18 18 19 20 21 22 22 22 23 23 24 24 24 24 24 26 26 25 26 26 26 26
10 9 8 8 7 7 8 7 7 8 8 8 9 10 10 10 11 12 13 15 17 18 18 19 19 20 21 21 22 23 23 24 24 25 25 26 26 26 27 27 27 28 29
10 9 9 9 9 8 8 8 8 8 8 8 8 9 10 10 11 11 13 14 16 17 17 18 19 20 20 21 22 23 24 24 24 25 26 26 27 28 27 27 28 29 29
11 10 9 9 10 9 9 9 9 9 9 9 9 10 10 10 11 11 13 14 16 17 18 19 19 20 20 21 22 23 24 24 25 26 26 26 27 28 28 29 30 30 32
12 12 11 11 11 10 10 10 10 10 10 11 11 11 11 10 11 12 12 14 16 18 19 20 20 20 21 21 22 23 23 24 26 27 27 28 28 29 30 30 31 32 32
14 14 14 13 12 12 11 11 11 11 12 12 12 11 11 11 12 12 12 14 15 17 19 21 22 22 21 21 22 23 23 24 25 26 27 27 28 29 30 30 31 33 34
14 14 15 15 14 14 14 14 13 13 13 13 13 14 13 13 13 13 14 13 14 15 17 19 20 21 21 22 22 22 23 25 25 26 27 27 28 29 31 32 33 34 35
16 16 16 16 16 15 15 16 15 15 15 15 15 14 15 14 15 15 14 14 14 15 17 19 20 21 21 22 23 23 24 25 25 26 27 29 30 30 31 32 33 35 36
18 19 18 18 18 18 17 17 17 17 17 17 16 16 15 15 16 16 15 15 15 16 17 18 20 22 22 22 22 23 24 24 25 26 28 30 31 32 32 34 35 36 36
20 20 21 21 20 20 19 19 18 18 18 18 18 18 17 17 18 18 17 18 18 18 19 20 21 22 22 21 22 24 25 25 26 27 29 30 31 32 33 34 35 36 38
21 21 21 21 21 21 21 20 20 19 19 19 20 20 19 19 19 19 19 19 19 20 20 20 20 21 21 22 24 25 26 26 26 28 28 29 30 32 34 35 36 38 40
21 21 21 21 22 22 22 21 21 21 21 21 21 22 22 21 21 21 20 20 20 20 21 21 22 22 22 23 24 25 26 27 29 29 29 31 32 34 37 38 39 40 41
21 20 20 21 22 22 22 22 23 23 23 22 22 22 23 23 23 23 22 22 21 21 21 21 21 22 23 24 25 26 28 29 30 31 32 34 36 37 38 39 39 40 42
21 21 22 22 22 22 22 23 23 23 23 23 22 22 23 23 23 23 23 23 22 23 22 22 23 24 25 26 27 28 29 31 32 34 34 35 37 38 39 39 40 41 42
22 22 22 22 23 23 23 23 23 22 23 23 23 23 24 23 24 24 24 23 23 23 23 24 25 26 27 29 29 29 31 32 33 34 34 35 36 37 38 39 40 42 43
Wind_Direction
285 289 290 297 302 305 305 308 294 284 268 256 252 248 247 244 240 237 236 232 229 229 225 223 220 220 219 220 223 225 221 221 218 219 222 227 232 235 239 244 250 252 254
282 286 289 292 298 301 301 305 298 285 273 262 256 252 247 244 238 237 236 232 226 225 226 223 221 220 219 221 222 222 222 224 225 227 229 232 237 241 248 255 255 256 258
280 284 290 292 296 298 300 301 299 287 277 268 261 252 245 240 241 239 240 233 230 227 226 221 218 219 219 223 223 224 226 226 228 229 232 238 241 247 254 259 259 261 262
279 282 287 291 295 296 297 298 298 287 276 269 260 254 246 241 240 239 236 231 228 226 225 222 221 223 223 224 225 226 226 228 231 232 234 239 241 247 254 258 257 259 261
277 282 285 288 291 292 296 300 295 285 275 269 264 255 250 243 239 238 236 231 227 227 226 226 224 224 224 224 226 227 228 228 231 235 238 240 243 248 251 255 257 257 260
277 281 285 287 289 292 296 298 293 282 269 264 260 255 249 242 240 238 237 232 228 227 228 229 226 226 227 227 229 229 230 231 233 237 241 244 245 249 251 254 256 258 260
277 280 285 286 288 293 295 295 285 280 269 266 264 253 243 238 239 239 237 233 230 229 229 230 228 228 229 230 232 233 233 235 236 238 242 246 247 250 252 255 257 260 261
277 280 283 284 286 292 293 293 285 276 268 262 260 249 242 240 241 239 235 234 233 233 232 230 231 231 230 232 235 237 237 237 238 241 244 247 248 251 253 256 259 260 262
275 281 284 287 289 290 290 292 284 280 269 260 255 246 242 245 244 241 236 235 234 231 230 232 233 234 234 234 236 239 239 239 240 243 245 247 250 252 254 256 258 260 261
272 277 281 286 289 290 289 290 290 280 277 267 254 250 250 249 244 238 236 238 234 230 229 232 233 234 235 235 236 239 241 241 242 244 247 249 250 252 254 256 258 260 262
270 273 276 282 288 293 289 285 289 283 276 269 262 258 255 251 248 249 244 237 233 231 232 234 236 237 237 237 239 242 243 242 244 248 250 251 251 253 255 256 259 261 263
270 271 271 276 281 291 294 291 289 285 283 274 265 262 258 255 256 254 246 237 234 235 234 234 235 236 237 238 240 242 245 245 247 249 252 253 253 254 256 258 261 263 265
268 264 263 266 275 287 293 292 292 289 284 283 276 268 261 261 261 255 244 240 236 235 235 235 235 235 237 241 245 246 247 249 250 251 253 255 255 256 259 261 262 264 265
262 260 261 262 271 282 289 290 290 292 289 284 283 275 267 265 265 258 246 240 238 236 235 236 237 238 242 246 249 250 251 252 253 254 254 256 258 259 259 262 265 267 267
257 259 264 267 271 276 279 280 281 285 285 283 284 281 275 270 269 261 250 244 242 241 238 239 241 243 246 250 254 254 253 254 255 256 255 256 258 259 260 263 265 267 268
254 256 260 267 270 275 277 275 278 281 284 283 283 283 279 274 270 266 258 249 246 245 243 243 244 247 248 251 255 256 256 257 259 259 258 260 261 261 262 264 265 268 270
253 256 260 262 267 273 275 275 274 275 279 281 281 279 276 276 275 270 260 253 249 246 244 243 244 247 250 253 255 255 258 260 262 261 262 262 262 263 265 266 268 269 270
254 255 259 263 266 270 273 275 273 272 277 277 279 278 274 275 275 274 271 261 252 248 248 247 246 248 250 254 258 259 262 263 264 264 263 263 264 264 267 270 271 272 273
253 256 260 265 268 270 272 273 272 272 276 275 276 275 272 273 272 275 272 264 259 256 253 251 250 251 254 258 262 265 268 266 266 265 265 266 267 267 269 271 273 274 275
255 255 258 262 265 270 272 272 269 270 271 272 273 274 271 273 274 273 272 269 266 262 262 262 257 257 259 261 261 264 266 267 268 269 269 270 270 270 273 275 277 276 277
257 256 257 259 264 267 267 267 266 268 269 271 273 272 270 270 270 271 270 269 266 267 264 264 262 263 265 264 265 266 267 270 272 273 273 272 272 273 275 277 277 278 279
257 257 257 259 262 264 266 265 265 267 267 269 271 270 269 271 271 271 270 269 268 268 267 267 266 265 266 267 270 271 271 273 273 274 273 274 275 277 278 280 281 282 283
257 257 259 259 262 264 264 264 264 265 267 268 268 268 268 269 270 272 273 272 272 273 271 271 272 271 271 273 276 277 277 278 279 279 278 278 280 281 281 282 282 283 284
256 258 259 260 262 262 262 261 263 264 265 266 266 266 268 268 269 273 272 273 276 278 277 276 275 275 275 278 280 282 282 281 281 281 282 282 282 284 285 285 285 286 287
256 258 259 259 261 262 262 262 262 263 264 266 267 270 269 271 273 272 273 274 278 278 276 275 275 276 278 281 283 283 284 284 284 287 287 287 286 286 286 288 289 289 289
257 258 259 260 261 262 262 263 264 264 266 267 269 269 269 271 272 273 274 273 274 275 278 279 279 281 284 285 285 285 286 287 287 287 288 289 289 290 290 290 291 292 292
Height
5883 5882 5881 5880 5878 5877 5875 5874 5872 5872 5871 5872 5873 5873 5875 5876 5877 5879 5881 5882 5883 5885 5886 5888 5890 5892 5893 5895 5896 5897 5898 5899 5900 5901 5901 5901 5902 5902 5902 5902 5902 5902 5902
5881 5880 5878 5877 5876 5874 5872 5871 5869 5867 5867 5868 5868 5869 5871 5873 5874 5876 5877 5878 5880 5882 5884 5886 5887 5889 5891 5893 5894 5895 5896 5898 5899 5899 5900 5900 5901 5901 5901 5901 5902 5901 5901
5877 5877 5875 5874 5872 5871 5869 5867 5865 5864 5864 5864 5864 5865 5867 5869 5870 5872 5873 5875 5877 5879 5881 5883 5885 5887 5889 5890 5892 5893 5894 5896 5897 5898 5899 5899 5900 5900 5900 5900 5900 5900 5900
5874 5873 5872 5870 5869 5867 5865 5863 5862 5861 5860 5860 5860 5861 5862 5864 5866 5867 5869 5871 5872 5875 5877 5879 5882 5884 5886 5888 5889 5891 5892 5894 5895 5896 5897 5898 5898 5898 5899 5899 5899 5899 5899
5870 5869 5868 5867 5865 5863 5862 5859 5858 5857 5856 5856 5856 5857 5858 5860 5862 5863 5865 5867 5869 5871 5874 5876 5878 5881 5883 5885 5887 5888 5890 5891 5893 5894 5895 5895 5896 5896 5897 5897 5897 5897 5897
5866 5865 5864 5863 5861 5860 5857 5855 5854 5853 5853 5853 5853 5853 5855 5856 5858 5860 5861 5863 5865 5867 5870 5872 5875 5877 5880 5882 5884 5885 5887 5889 5890 5891 5892 5893 5893 5894 5894 5895 5895 5895 5895
5862 5861 5860 5859 5858 5855 5853 5851 5850 5849 5849 5849 5850 5850 5851 5852 5854 5856 5858 5860 5862 5864 5866 5869 5871 5874 5876 5879 5880 5882 5884 5885 5887 5888 5889 5890 5890 5891 5891 5892 5892 5892 5892
5859 5858 5857 5856 5854 5852 5850 5849 5848 5847 5846 5847 5847 5847 5848 5850 5851 5852 5854 5856 5858 5860 5862 5865 5867 5869 5872 5874 5877 5878 5880 5881 5883 5884 5885 5886 5887 5887 5888 5889 5889 5889 5889
5856 5855 5854 5852 5851 5849 5848 5846 5845 5845 5844 5844 5844 5844 5846 5847 5847 5848 5850 5852 5854 5856 5858 5861 5863 5865 5868 5870 5872 5874 5876 5877 5879 5880 5881 5882 5883 5883 5884 5884 5885 5886 5885
5852 5852 5851 5850 5848 5847 5846 5845 5844 5844 5843 5842 5842 5843 5843 5844 5844 5845 5846 5848 5850 5852 5854 5856 5859 5861 5863 5865 5867 5869 5871 5873 5874 5875 5876 5877 5878 5878 5879 5880 5880 5880 5881
5849 5849 5848 5848 5846 5845 5844 5844 5843 5842 5842 5841 5841 5841 5841 5841 5842 5842 5843 5844 5846 5848 5850 5852 5854 5856 5859 5861 5863 5865 5866 5868 5869 5870 5871 5872 5873 5873 5874 5874 5875 5875 5875
5846 5846 5846 5846 5845 5844 5843 5842 5841 5841 5840 5839 5839 5838 5838 5838 5839 5839 5840 5841 5842 5844 5846 5848 5850 5852 5854 5856 5858 5859 5861 5862 5864 5865 5866 5867 5867 5868 5868 5869 5869 5869 5869
5843 5843 5843 5843 5843 5842 5841 5840 5840 5839 5838 5837 5837 5836 5836 5836 5836 5836 5837 5838 5839 5840 5842 5844 5846 5848 5850 5852 5853 5854 5856 5857 5858 5859 5860 5860 5861 5861 5862 5862 5862 5862 5862
5841 5841 5841 5841 5840 5840 5839 5838 5838 5837 5836 5836 5835 5834 5834 5834 5833 5834 5834 5835 5836 5837 5839 5840 5842 5844 5846 5847 5848 5849 5850 5851 5852 5852 5853 5854 5854 5855 5855 5856 5856 5855 5855
5838 5838 5838 5838 5838 5837 5837 5836 5836 5835 5834 5834 5833 5832 5832 5831 5831 5831 5831 5832 5833 5834 5835 5837 5839 5840 5841 5843 5844 5844 5845 5845 5845 5846 5846 5847 5848 5848 5849 5849 5848 5848 5848
5835 5836 5835 5835 5835 5835 5834 5833 5833 5833 5832 5831 5831 5830 5829 5829 5828 5828 5828 5828 5829 5830 5831 5832 5834 5835 5836 5838 5838 5839 5839 5839 5839 5839 5840 5840 5841 5841 5841 5841 5841 5841 5840
5832 5832 5832 5832 5832 5832 5831 5831 5830 5830 5830 5829 5828 5828 5827 5827 5826 5825 5824 5824 5824 5825 5826 5827 5829 5830 5832 5832 5833 5833 5833 5833 5833 5833 5833 5834 5834 5834 5834 5834 5833 5833 5832
5828 5828 5828 5828 5828 5828 5828 5828 5827 5827 5827 5826 5826 5825 5825 5824 5823 5822 5821 5820 5820 5820 5821 5823 5823 5825 5826 5827 5827 5828 5827 5827 5826 5826 5826 5826 5827 5826 5826 5826 5825 5824 5823
5824 5824 5824 5824 5824 5824 5824 5824 5824 5823 5823 5823 5822 5821 5821 5821 5820 5819 5818 5818 5817 5817 5817 5818 5819 5820 5820 5821 5822 5822 5821 5821 5820 5819 5819 5819 5819 5818 5818 5817 5816 5815 5814
5819 5819 5819 5820 5820 5820 5820 5820 5820 5820 5819 5819 5818 5818 5818 5817 5817 5816 5816 5815 5814 5814 5814 5814 5814 5814 5815 5815 5815 5815 5815 5814 5813 5813 5812 5811 5810 5810 5809 5808 5807 5806 5804
5813 5814 5815 5815 5815 5815 5815 5815 5815 5815 5815 5815 5814 5813 5813 5813 5813 5812 5812 5811 5811 5810 5809 5809 5808 5809 5809 5809 5809 5809 5808 5808 5807 5806 5805 5804 5802 5802 5801 5799 5798 5796 5795
5808 5808 5809 5809 5809 5810 5810 5810 5810 5810 5810 5810 5810 5809 5809 5809 5808 5808 5807 5807 5806 5806 5805 5804 5804 5804 5804 5804 5803 5802 5801 5801 5799 5798 5797 5796 5795 5793 5792 5790 5788 5786 5784
5802 5802 5803 5803 5804 5804 5804 5805 5805 5805 5805 5805 5805 5804 5804 5804 5803 5803 5802 5802 5801 5801 5800 5799 5799 5798 5798 5797 5796 5795 5794 5793 5792 5791 5789 5787 5786 5784 5782 5780 5777 5775 5772
5796 5796 5797 5797 5798 5798 5798 5799 5799 5799 5799 5799 5799 5799 5798 5798 5798 5797 5797 5797 5796 5795 5794 5794 5793 5793 5792 5791 5790 5788 5787 5786 5784 5782 5780 5778 5776 5774 5771 5769 5766 5763 5760
5790 5791 5791 5792 5792 5792 5792 5793 5793 5793 5793 5793 5793 5792 5792 5792 5792 5791 5791 5790 5790 5789 5789 5788 5787 5786 5785 5784 5783 5781 5779 5777 5775 5773 5771 5768 5766 5763 5760 5758 5755 5752 5748
5784 5784 5785 5785 5786 5786 5786 5787 5787 5787 5787 5787 5787 5787 5787 5786 5786 5786 5785 5784 5784 5783 5783 5782 5781 5779 5778 5777 5775 5773 5771 5769 5767 5764 5761 5758 5756 5753 5750 5746 5743 5740 5736